| time (UTC) | temp C | wind direction | speed KPH | gust KPH | rain 1hr cm | rain 24hr cm | rain mn cm | humidity % | barometer mb |
| 20260504210004 | 12 | 132 | 0.0 | 4.8 | 0.00 | 1.35 | 0.13 | 93 | 1020.7 |
| 20260504205504 | 12 | 132 | 0.0 | 4.8 | 0.05 | 1.35 | 0.13 | 93 | 1020.6 |
| 20260504205004 | 12 | 132 | 1.6 | 1.6 | 0.05 | 1.37 | 0.13 | 93 | 1020.5 |
| 20260504204525 | 12 | 133 | 1.6 | 8.0 | 0.05 | 1.37 | 0.13 | 93 | 1020.5 |
| 20260504204004 | 12 | 133 | 0.0 | 8.0 | 0.05 | 1.37 | 0.13 | 93 | 1020.4 |
| 20260504203504 | 12 | 134 | 4.8 | 4.8 | 0.05 | 1.37 | 0.13 | 93 | 1020.5 |
| 20260504203004 | 12 | 0 | 0.0 | 0.0 | 0.05 | 1.37 | 0.13 | 93 | 1020.4 |
| 20260504202504 | 12 | 0 | 0.0 | 0.0 | 0.05 | 1.37 | 0.13 | 93 | 1020.4 |
| 20260504202004 | 12 | 0 | 0.0 | 0.0 | 0.05 | 1.37 | 0.13 | 93 | 1020.3 |
| 20260504201504 | 12 | 138 | 8.0 | 8.0 | 0.05 | 1.37 | 0.13 | 93 | 1020.3 |
| 20260504201004 | 12 | 138 | 8.0 | 8.0 | 0.05 | 1.47 | 0.13 | 93 | 1020.3 |
| 20260504200504 | 12 | 0 | 0.0 | 0.0 | 0.05 | 1.57 | 0.13 | 93 | 1020.2 |
| 20260504200004 | 12 | 0 | 0.0 | 0.0 | 0.05 | 1.60 | 0.13 | 93 | 1020.2 |
| 20260504195504 | 12 | 0 | 0.0 | 0.0 | 0.00 | 1.57 | 0.08 | 93 | 1020.3 |
| 20260504195004 | 12 | 0 | 0.0 | 0.0 | 0.00 | 1.75 | 0.08 | 92 | 1020.2 |
| 20260504194504 | 12 | 0 | 0.0 | 0.0 | 0.00 | 1.75 | 0.08 | 92 | 1020.1 |
| 20260504194004 | 12 | 0 | 0.0 | 0.0 | 0.00 | 1.78 | 0.08 | 92 | 1020.0 |
| 20260504193503 | 12 | 0 | 0.0 | 0.0 | 0.00 | 1.80 | 0.08 | 93 | 1020.0 |
| 20260504193004 | 12 | 0 | 0.0 | 0.0 | 0.00 | 1.83 | 0.08 | 93 | 1019.9 |
| 20260504192504 | 12 | 0 | 0.0 | 0.0 | 0.00 | 1.83 | 0.08 | 92 | 1019.9 |
| 20260504192004 | 12 | 0 | 0.0 | 0.0 | 0.00 | 1.98 | 0.08 | 92 | 1019.9 |
| 20260504191525 | 12 | 174 | 0.0 | 1.6 | 0.00 | 1.98 | 0.08 | 92 | 1019.9 |
| 20260504191025 | 12 | 174 | 0.0 | 1.6 | 0.00 | 1.98 | 0.08 | 92 | 1019.9 |
| 20260504190504 | 12 | 173 | 0.0 | 1.6 | 0.03 | 1.98 | 0.08 | 92 | 1019.9 |
| 20260504190004 | 12 | 174 | 0.0 | 1.6 | 0.03 | 2.01 | 0.08 | 92 | 1019.8 |
| 20260504185504 | 12 | 174 | 0.0 | 1.6 | 0.05 | 2.01 | 0.08 | 92 | 1019.8 |
| 20260504185004 | 12 | 0 | 0.0 | 0.0 | 0.05 | 2.01 | 0.08 | 92 | 1019.8 |
| 20260504184504 | 12 | 0 | 0.0 | 0.0 | 0.05 | 2.01 | 0.08 | 92 | 1019.7 |
| 20260504184004 | 13 | 174 | 0.0 | 1.6 | 0.05 | 2.03 | 0.08 | 92 | 1019.6 |
| 20260504183504 | 13 | 174 | 1.6 | 4.8 | 0.05 | 2.06 | 0.08 | 92 | 1019.6 |
| 20260504183004 | 13 | 175 | 1.6 | 8.0 | 0.05 | 2.06 | 0.08 | 92 | 1019.5 |
| 20260504182525 | 13 | 176 | 0.0 | 8.0 | 0.05 | 2.06 | 0.08 | 92 | 1019.5 |
| 20260504182003 | 13 | 0 | 0.0 | 0.0 | 0.05 | 2.06 | 0.08 | 92 | 1019.5 |
| 20260504181503 | 13 | 311 | 1.6 | 1.6 | 0.05 | 2.06 | 0.08 | 92 | 1019.5 |
| 20260504181004 | 13 | 288 | 1.6 | 8.0 | 0.05 | 2.06 | 0.08 | 92 | 1019.5 |
| 20260504180503 | 13 | 247 | 0.0 | 8.0 | 0.03 | 2.03 | 0.05 | 92 | 1019.5 |
| 20260504180004 | 13 | 137 | 0.0 | 4.8 | 0.03 | 2.03 | 0.05 | 92 | 1019.5 |
| 20260504175504 | 13 | 137 | 0.0 | 1.6 | 0.00 | 2.03 | 0.05 | 92 | 1019.5 |
| 20260504175004 | 13 | 137 | 0.0 | 1.6 | 0.00 | 2.03 | 0.05 | 92 | 1019.6 |
| 20260504174503 | 13 | 137 | 1.6 | 1.6 | 0.00 | 2.03 | 0.05 | 92 | 1019.6 |
| 20260504174004 | 13 | 138 | 1.6 | 4.8 | 0.00 | 2.03 | 0.05 | 92 | 1019.6 |
| 20260504173504 | 13 | 138 | 1.6 | 4.8 | 0.00 | 2.03 | 0.05 | 92 | 1019.5 |
| 20260504173004 | 13 | 138 | 0.0 | 4.8 | 0.00 | 2.06 | 0.05 | 92 | 1019.6 |
| 20260504172525 | 13 | 138 | 0.0 | 4.8 | 0.00 | 2.06 | 0.05 | 92 | 1019.7 |
| 20260504172004 | 13 | 138 | 0.0 | 4.8 | 0.03 | 2.06 | 0.05 | 92 | 1019.8 |
| 20260504171504 | 13 | 0 | 0.0 | 0.0 | 0.03 | 2.08 | 0.05 | 92 | 1019.7 |
| 20260504171004 | 13 | 0 | 0.0 | 0.0 | 0.03 | 2.08 | 0.05 | 92 | 1019.8 |
| 20260504170504 | 13 | 0 | 0.0 | 0.0 | 0.03 | 2.08 | 0.05 | 92 | 1019.8 |
| 20260504151004 | 12 | 88 | 6.4 | 9.7 | 0.03 | 2.11 | 0.03 | 91 | 1019.5 |
| 20260504150525 | 12 | 76 | 6.4 | 8.0 | 0.03 | 2.11 | 0.03 | 91 | 1019.5 |
| 20260504141004 | 13 | 84 | 1.6 | 4.8 | 0.00 | 2.11 | 2.11 | 90 | 1019.2 |
| 20260504140525 | 13 | 58 | 1.6 | 8.0 | 0.00 | 2.11 | 2.11 | 90 | 1019.3 |
| 20260504130504 | 13 | 0 | 0.0 | 0.0 | 0.03 | 2.11 | 2.11 | 88 | 1019.0 |
| 20260504082004 | 16 | 270 | 9.7 | 16.1 | 0.00 | 2.13 | 2.08 | 80 | 1015.8 |
| 20260504081504 | 16 | 284 | 8.0 | 16.1 | 0.00 | 2.13 | 2.08 | 80 | 1015.8 |
| 20260504081004 | 16 | 293 | 6.4 | 16.1 | 0.00 | 2.13 | 2.08 | 81 | 1015.7 |
| 20260504080504 | 16 | 298 | 8.0 | 16.1 | 0.00 | 2.13 | 2.08 | 81 | 1015.7 |
| 20260504050504 | 19 | 247 | 22.5 | 38.6 | 0.00 | 2.18 | 2.08 | 63 | 1014.1 |
| 20260504050004 | 18 | 255 | 20.9 | 37.0 | 0.00 | 2.18 | 2.08 | 65 | 1014.0 |
| 20260504045504 | 18 | 257 | 20.9 | 38.6 | 0.00 | 2.18 | 2.08 | 64 | 1014.0 |
| 20260504045004 | 19 | 252 | 19.3 | 38.6 | 0.00 | 2.18 | 2.08 | 64 | 1013.9 |
| 20260504044504 | 18 | 240 | 17.7 | 32.2 | 0.00 | 2.18 | 2.08 | 64 | 1013.8 |
| 20260504044004 | 18 | 227 | 19.3 | 32.2 | 0.00 | 2.18 | 2.08 | 66 | 1013.8 |
| 20260504043504 | 18 | 222 | 20.9 | 38.6 | 0.00 | 2.18 | 2.08 | 65 | 1013.8 |
| 20260504043004 | 18 | 224 | 22.5 | 38.6 | 0.00 | 2.18 | 2.08 | 66 | 1013.6 |
| 20260504042504 | 18 | 237 | 20.9 | 37.0 | 0.00 | 2.18 | 2.08 | 68 | 1013.7 |
| 20260504042004 | 18 | 243 | 17.7 | 40.2 | 0.00 | 2.18 | 2.08 | 67 | 1013.7 |
| 20260504041504 | 18 | 243 | 17.7 | 40.2 | 0.00 | 2.18 | 2.08 | 66 | 1013.6 |
| 20260504041004 | 18 | 249 | 19.3 | 37.0 | 0.00 | 2.18 | 2.08 | 67 | 1013.7 |
| 20260504040525 | 19 | 252 | 22.5 | 37.0 | 0.00 | 2.18 | 2.08 | 66 | 1013.6 |
| 20260504040004 | 19 | 256 | 24.1 | 38.6 | 0.00 | 2.18 | 2.08 | 67 | 1013.7 |
| 20260504035505 | 18 | 261 | 24.1 | 45.1 | 0.00 | 2.18 | 2.08 | 67 | 1013.7 |
| 20260504035004 | 18 | 259 | 22.5 | 45.1 | 0.00 | 2.18 | 2.08 | 68 | 1013.6 |
| 20260504034525 | 18 | 254 | 20.9 | 45.1 | 0.00 | 2.18 | 2.08 | 66 | 1013.7 |
| 20260504034004 | 18 | 255 | 20.9 | 38.6 | 0.00 | 2.18 | 2.08 | 67 | 1013.6 |
| 20260504033504 | 18 | 253 | 24.1 | 38.6 | 0.00 | 2.18 | 2.08 | 69 | 1013.8 |
| 20260504033004 | 18 | 248 | 24.1 | 38.6 | 0.00 | 2.18 | 2.08 | 69 | 1013.7 |
| 20260504032525 | 18 | 241 | 24.1 | 46.7 | 0.00 | 2.18 | 2.08 | 68 | 1013.7 |
| 20260504032004 | 18 | 239 | 24.1 | 46.7 | 0.00 | 2.18 | 2.08 | 68 | 1013.6 |
| 20260504031505 | 18 | 247 | 22.5 | 51.5 | 0.00 | 2.18 | 2.08 | 69 | 1013.7 |
| 20260504031004 | 18 | 250 | 20.9 | 51.5 | 0.00 | 2.18 | 2.08 | 69 | 1013.8 |
| 20260504030504 | 18 | 254 | 20.9 | 43.5 | 0.00 | 2.18 | 2.08 | 71 | 1013.7 |
| 20260504030004 | 18 | 259 | 20.9 | 40.2 | 0.13 | 2.18 | 2.08 | 71 | 1013.8 |
| 20260504025504 | 18 | 264 | 20.9 | 48.3 | 0.13 | 2.18 | 2.08 | 73 | 1013.9 |
| 20260504025003 | 18 | 264 | 19.3 | 48.3 | 0.13 | 2.18 | 2.08 | 75 | 1013.9 |
| 20260504024504 | 17 | 256 | 17.7 | 30.6 | 0.13 | 2.18 | 2.08 | 77 | 1013.9 |
| 20260504024004 | 17 | 251 | 17.7 | 30.6 | 0.13 | 2.18 | 2.08 | 80 | 1013.9 |
| 20260504023504 | 17 | 252 | 17.7 | 30.6 | 0.13 | 2.18 | 2.08 | 83 | 1013.9 |
| 20260504023004 | 16 | 262 | 17.7 | 40.2 | 0.13 | 2.18 | 2.08 | 83 | 1014.0 |
| 20260504022504 | 16 | 261 | 16.1 | 40.2 | 0.13 | 2.18 | 2.08 | 85 | 1014.1 |
| 20260504022025 | 16 | 255 | 17.7 | 30.6 | 0.13 | 2.18 | 2.08 | 87 | 1014.1 |
| 20260504021504 | 16 | 255 | 20.9 | 30.6 | 0.13 | 2.18 | 2.08 | 86 | 1014.1 |
| 20260504021025 | 15 | 261 | 22.5 | 51.5 | 0.13 | 2.18 | 2.08 | 84 | 1014.1 |
| 20260504020504 | 16 | 264 | 22.5 | 51.5 | 0.15 | 2.18 | 2.08 | 80 | 1014.2 |
| 20260504020004 | 17 | 264 | 22.5 | 38.6 | 0.05 | 2.06 | 1.96 | 78 | 1013.9 |
| 20260504015504 | 17 | 260 | 20.9 | 38.6 | 0.05 | 2.06 | 1.96 | 78 | 1013.9 |
| 20260504015004 | 17 | 257 | 20.9 | 37.0 | 0.05 | 2.06 | 1.96 | 78 | 1014.0 |
| 20260504014504 | 17 | 258 | 19.3 | 40.2 | 0.05 | 2.06 | 1.96 | 78 | 1013.9 |
| 20260504014004 | 17 | 249 | 17.7 | 40.2 | 0.05 | 2.06 | 1.96 | 79 | 1013.9 |
| 20260504013504 | 17 | 242 | 17.7 | 30.6 | 0.05 | 2.06 | 1.96 | 81 | 1013.9 |
| 20260504013004 | 16 | 251 | 19.3 | 40.2 | 0.05 | 2.06 | 1.96 | 84 | 1013.9 |
| 20260504012504 | 16 | 249 | 17.7 | 40.2 | 0.05 | 2.06 | 1.96 | 83 | 1013.9 |
| 20260504012004 | 16 | 252 | 17.7 | 38.6 | 0.05 | 2.06 | 1.96 | 85 | 1013.9 |
| 20260504011525 | 16 | 256 | 20.9 | 32.2 | 0.05 | 2.06 | 1.96 | 86 | 1013.9 |
| 20260504011004 | 16 | 256 | 20.9 | 54.7 | 0.05 | 2.06 | 1.96 | 85 | 1013.8 |
| 20260504010504 | 16 | 260 | 19.3 | 54.7 | 0.03 | 2.03 | 1.93 | 82 | 1013.8 |
| 20260504010004 | 17 | 262 | 19.3 | 32.2 | 0.00 | 2.03 | 1.93 | 83 | 1013.6 |
| 20260504005504 | 16 | 259 | 17.7 | 30.6 | 0.00 | 2.03 | 1.93 | 84 | 1013.6 |
| 20260504005004 | 16 | 252 | 19.3 | 29.0 | 0.00 | 2.03 | 1.93 | 86 | 1013.5 |
| 20260504004503 | 16 | 257 | 20.9 | 30.6 | 0.00 | 2.03 | 1.93 | 88 | 1013.6 |
| 20260504004004 | 16 | 265 | 20.9 | 43.5 | 0.00 | 2.03 | 1.93 | 89 | 1013.5 |
| 20260504003525 | 16 | 270 | 20.9 | 43.5 | 0.00 | 2.03 | 1.93 | 90 | 1013.5 |
| 20260504003025 | 16 | 275 | 20.9 | 37.0 | 0.00 | 2.03 | 1.93 | 92 | 1013.4 |
| 20260504002504 | 15 | 273 | 19.3 | 37.0 | 0.00 | 2.03 | 1.93 | 93 | 1013.3 |
| 20260504002004 | 15 | 275 | 16.1 | 37.0 | 0.00 | 2.03 | 1.93 | 93 | 1013.3 |
| 20260504001504 | 15 | 277 | 14.5 | 29.0 | 0.00 | 2.03 | 1.93 | 93 | 1013.3 |
| 20260504001004 | 15 | 273 | 16.1 | 27.4 | 0.00 | 2.03 | 1.93 | 94 | 1013.2 |
| 20260504000504 | 15 | 273 | 16.1 | 37.0 | 0.00 | 2.03 | 1.93 | 94 | 1013.3 |
| 20260504000003 | 15 | 275 | 16.1 | 37.0 | 0.00 | 2.03 | 1.93 | 94 | 1013.3 |
| 20260503235525 | 15 | 277 | 16.1 | 29.0 | 0.00 | 2.03 | 1.93 | 94 | 1013.2 |
| 20260503235003 | 15 | 275 | 12.9 | 32.2 | 0.00 | 2.03 | 1.93 | 94 | 1013.2 |
| 20260503234503 | 15 | 279 | 11.3 | 32.2 | 0.00 | 2.03 | 1.93 | 94 | 1013.1 |
| 20260503234004 | 15 | 286 | 11.3 | 20.9 | 0.08 | 2.03 | 1.93 | 94 | 1013.0 |
| 20260503233503 | 15 | 291 | 11.3 | 20.9 | 0.23 | 2.03 | 1.93 | 94 | 1012.9 |
| 20260503233004 | 15 | 291 | 11.3 | 17.7 | 0.43 | 2.03 | 1.93 | 94 | 1012.9 |
| 20260503232504 | 15 | 297 | 12.9 | 17.7 | 0.43 | 2.03 | 1.93 | 94 | 1012.8 |
| 20260503232003 | 14 | 302 | 12.9 | 17.7 | 0.43 | 2.03 | 1.93 | 94 | 1012.8 |
| 20260503231504 | 14 | 300 | 12.9 | 20.9 | 0.43 | 2.03 | 1.93 | 94 | 1012.7 |
| 20260503231003 | 14 | 293 | 12.9 | 20.9 | 0.46 | 2.03 | 1.93 | 94 | 1012.7 |
| 20260503230503 | 14 | 287 | 12.9 | 17.7 | 0.61 | 2.03 | 1.93 | 94 | 1012.6 |
| 20260503230004 | 14 | 283 | 12.9 | 22.5 | 0.61 | 2.03 | 1.93 | 94 | 1012.6 |
| 20260503225524 | 14 | 272 | 9.7 | 22.5 | 0.64 | 2.03 | 1.93 | 94 | 1012.4 |
| 20260503225003 | 14 | 252 | 8.0 | 24.1 | 0.76 | 2.03 | 1.93 | 94 | 1012.3 |
| 20260503224525 | 13 | 255 | 12.9 | 24.1 | 0.86 | 2.03 | 1.93 | 94 | 1012.2 |
| 20260503224024 | 13 | 302 | 19.3 | 29.0 | 0.79 | 1.96 | 1.83 | 94 | 1012.1 |
| 20260503223504 | 13 | 311 | 20.9 | 30.6 | 0.71 | 1.83 | 1.70 | 94 | 1012.1 |
| 20260503223004 | 13 | 309 | 22.5 | 30.6 | 0.48 | 1.60 | 1.47 | 94 | 1011.9 |
| 20260503222525 | 13 | 306 | 22.5 | 43.5 | 0.48 | 1.60 | 1.47 | 94 | 1011.9 |
| 20260503222024 | 13 | 310 | 20.9 | 45.1 | 0.48 | 1.60 | 1.47 | 94 | 1011.7 |
| 20260503221504 | 13 | 308 | 20.9 | 45.1 | 0.51 | 1.60 | 1.47 | 94 | 1011.5 |
| 20260503221003 | 13 | 306 | 19.3 | 48.3 | 0.53 | 1.57 | 1.45 | 94 | 1011.7 |
| 20260503220504 | 13 | 311 | 14.5 | 48.3 | 0.43 | 1.45 | 1.32 | 94 | 1011.4 |
| 20260503220003 | 13 | 314 | 12.9 | 29.0 | 0.43 | 1.42 | 1.30 | 93 | 1011.6 |
| 20260503215503 | 13 | 309 | 12.9 | 24.1 | 0.41 | 1.40 | 1.27 | 94 | 1011.5 |
| 20260503215003 | 13 | 296 | 14.5 | 20.9 | 0.30 | 1.27 | 1.17 | 94 | 1011.4 |
| 20260503214504 | 13 | 293 | 17.7 | 27.4 | 0.20 | 1.17 | 1.07 | 94 | 1011.4 |
| 20260503214024 | 13 | 308 | 17.7 | 32.2 | 0.18 | 1.17 | 1.04 | 93 | 1011.4 |
| 20260503213504 | 13 | 314 | 17.7 | 32.2 | 0.15 | 1.12 | 0.99 | 93 | 1011.2 |
| 20260503213004 | 13 | 310 | 12.9 | 30.6 | 0.15 | 1.12 | 0.99 | 93 | 1011.3 |
| 20260503212504 | 13 | 309 | 11.3 | 30.6 | 0.15 | 1.12 | 0.99 | 93 | 1011.2 |
| 20260503212004 | 13 | 301 | 11.3 | 22.5 | 0.15 | 1.12 | 0.99 | 93 | 1011.3 |
| 20260503211504 | 13 | 300 | 12.9 | 17.7 | 0.15 | 1.09 | 0.99 | 93 | 1011.3 |
| 20260503211003 | 13 | 313 | 12.9 | 20.9 | 0.18 | 1.04 | 0.91 | 93 | 1011.2 |
| 20260503210525 | 13 | 319 | 12.9 | 22.5 | 0.25 | 1.02 | 0.89 | 93 | 1011.2 |